Sigfox identifier Datetime Temperature Humidity SNR
003B5982 2019-02-20 13:47:18 20.7 23 23.8
003B5982 2019-02-20 13:15:14 20.7 24 23.8
003B5982 2019-02-20 12:43:08 20.7 25 23.1
003B5982 2019-02-20 12:11:03 20.7 26 23.1
003B5982 2019-02-20 11:38:59 20.7 26 23
003B5982 2019-02-20 11:06:52 20.7 27 22.1
003B5982 2019-02-20 10:34:49 20.7 27 22.1
003B5982 2019-02-20 10:02:41 20.9 27 20.9
003B5982 2019-02-20 10:01:25 20.6 27 19.4
003B5982 2019-02-20 09:29:22 20.6 27 19.3
003B5982 2019-02-20 08:57:16 20.6 27 16.6
003B5982 2019-02-20 08:25:11 20.5 27 16.6
003B5982 2019-02-20 07:53:05 20.5 28 16.7
003B5982 2019-02-20 07:21:06 20.5 28 16.6
003B5982 2019-02-20 06:48:56 20.6 28 16.6
003B5982 2019-02-20 06:16:52 20.6 28 16.7
003B5982 2019-02-20 05:44:46 20.6 28 16.7
003B5982 2019-02-20 05:12:41 20.6 28 16.9
003B5982 2019-02-20 04:40:38 20.6 28 16.6
003B5982 2019-02-20 04:08:33 20.6 28 16.6
003B5982 2019-02-20 03:36:27 20.6 28 16.5
003B5982 2019-02-20 03:04:23 20.6 28 16.5
003B5982 2019-02-20 02:32:22 20.6 28 16.9
003B5982 2019-02-20 02:00:15 20.7 28 16.7
003B5982 2019-02-20 01:28:09 20.6 28 16.4
003B5982 2019-02-20 00:56:06 20.7 28 16.1
003B5982 2019-02-20 00:23:58 20.7 28 15.9
003B5982 2019-02-19 23:51:51 20.7 28 15.7
003B5982 2019-02-19 23:19:44 20.7 27 16.3
003B5982 2019-02-19 22:47:38 20.7 27 19
003B5982 2019-02-19 22:15:36 20.7 27 20.8
003B5982 2019-02-19 21:43:26 20.7 27 20.7
003B5982 2019-02-19 21:11:20 20.7 27 20.8
003B5982 2019-02-19 20:39:19 20.7 28 20.7
003B5982 2019-02-19 20:07:10 20.8 28 20.9
003B5982 2019-02-19 19:35:06 20.8 28 21.1
003B5982 2019-02-19 19:03:02 20.8 28 21.3
003B5982 2019-02-19 18:30:54 20.9 28 21.5
003B5982 2019-02-19 17:58:49 20.9 28 21.7
003B5982 2019-02-19 17:26:45 20.9 28 21.8
003B5982 2019-02-19 16:54:37 21 28 22.1
003B5982 2019-02-19 16:22:30 21 28 22.2
003B5982 2019-02-19 15:50:24 20.9 28 22.2
003B5982 2019-02-19 15:18:18 20.9 28 22.4
003B5982 2019-02-19 14:46:13 21 28 22.6
003B5982 2019-02-19 14:14:08 21 28 22.5
003B5982 2019-02-19 13:42:04 21 28 22.7
003B5982 2019-02-19 13:09:57 20.9 27 22.7
003B5982 2019-02-19 12:37:55 20.9 27 22.7
003B5982 2019-02-19 12:05:46 20.9 27 22.8
003B5982 2019-02-19 11:33:39 20.9 27 22.9
003B5982 2019-02-19 11:01:33 20.9 27 23
003B5982 2019-02-19 10:29:27 20.8 27 23.1
003B5982 2019-02-19 09:57:21 20.7 27 23
003B5982 2019-02-19 09:25:15 20.7 27 22.1
003B5982 2019-02-19 08:53:08 20.7 26 21.3
003B5982 2019-02-19 08:21:01 20.6 26 21.3
003B5982 2019-02-19 07:48:54 20.9 25 21.4
003B5982 2019-02-19 07:47:39 20.6 26 21.5
003B5982 2019-02-19 07:15:33 20.6 25 21.4
003B5982 2019-02-19 06:43:26 20.6 25 21.5
003B5982 2019-02-19 06:11:20 20.6 25 21.3
003B5982 2019-02-19 05:39:13 20.6 25 21.3
003B5982 2019-02-19 05:07:05 20.6 25 21.3
003B5982 2019-02-19 04:34:59 20.6 25 21.2
003B5982 2019-02-19 04:02:51 20.6 25 22.1
003B5982 2019-02-19 03:30:44 20.6 25 22
003B5982 2019-02-19 02:58:35 20.6 25 21.9
003B5982 2019-02-19 02:26:27 20.6 25 21.7
003B5982 2019-02-19 01:54:18 20.6 24 21.6
003B5982 2019-02-19 01:22:10 20.6 24 21.6
003B5982 2019-02-19 00:50:03 20.6 24 21.6
003B5982 2019-02-19 00:17:56 20.6 24 21.6
003B5982 2019-02-18 23:45:50 20.6 24 22.6
003B5982 2019-02-18 23:13:43 20.6 24 22.9
003B5982 2019-02-18 22:41:36 20.6 24 22.9
003B5982 2019-02-18 22:09:31 20.6 23 23
003B5982 2019-02-18 21:37:25 20.6 23 23.2
003B5982 2019-02-18 21:05:20 20.7 23 23.3
003B5982 2019-02-18 20:33:16 20.7 23 23.2
003B5982 2019-02-18 20:01:12 20.7 23 23.4
003B5982 2019-02-18 19:29:08 20.7 23 23.5
003B5982 2019-02-18 18:57:04 20.7 22 23.5
003B5982 2019-02-18 18:25:00 20.8 22 23.6
003B5982 2019-02-18 17:52:56 20.8 22 23.7
003B5982 2019-02-18 17:20:52 20.8 22 23.8
003B5982 2019-02-18 16:48:47 20.8 22 23.9
003B5982 2019-02-18 16:16:42 20.8 22 23.9
003B5982 2019-02-18 15:44:38 20.9 22 24
003B5982 2019-02-18 15:12:34 20.9 21 23.5
003B5982 2019-02-18 14:40:29 20.9 21 23.7
003B5982 2019-02-18 14:08:28 20.9 21 23.8
003B5982 2019-02-18 13:36:22 21 20 24
003B5982 2019-02-18 13:04:19 21.1 20 24.1
003B5982 2019-02-18 12:32:16 21.3 19 24.3
003B5982 2019-02-18 12:00:12 21.3 19 24.3
003B5982 2019-02-18 11:28:08 21.3 19 24.3
003B5982 2019-02-18 10:56:05 21.2 19 23.8
003B5982 2019-02-18 10:24:02 21.2 19 23.7
003B5982 2019-02-18 09:51:59 21.2 19 23.7
003B5982 2019-02-18 09:19:56 21.2 18 23.7
003B5982 2019-02-18 08:47:53 21.2 18 23.7
003B5982 2019-02-18 08:15:49 21.1 18 23.7
003B5982 2019-02-18 07:43:44 21 18 23.7
003B5982 2019-02-18 07:11:40 20.9 18 23.7
003B5982 2019-02-18 06:39:35 20.7 18 23.6
003B5982 2019-02-18 06:07:32 20.8 18 23.6
003B5982 2019-02-18 05:35:28 21.1 18 23.7
003B5982 2019-02-18 05:34:13 20.8 18 23.7
003B5982 2019-02-18 05:02:10 20.8 18 23.6
003B5982 2019-02-18 04:30:07 20.7 18 23.7
003B5982 2019-02-18 03:58:05 20.7 18 23.7
003B5982 2019-02-18 03:26:02 20.7 18 23.7
003B5982 2019-02-18 02:53:58 20.7 18 23.8
003B5982 2019-02-18 02:21:55 20.8 18 23.8
003B5982 2019-02-18 01:49:52 20.8 18 23.8
003B5982 2019-02-18 01:17:48 20.9 18 23.8
003B5982 2019-02-18 00:45:44 20.9 19 23.7
003B5982 2019-02-18 00:13:39 20.9 18 23.7
003B5982 2019-02-17 23:41:37 20.9 18 23.6
003B5982 2019-02-17 23:09:34 20.9 19 23.7
003B5982 2019-02-17 22:37:31 20.9 19 23.7
003B5982 2019-02-17 22:05:29 20.9 19 23.7
003B5982 2019-02-17 21:33:25 20.8 19 23.7
003B5982 2019-02-17 21:01:22 20.8 19 23.8
003B5982 2019-02-17 20:29:18 20.8 19 23.8
003B5982 2019-02-17 19:57:15 20.9 19 23.8
003B5982 2019-02-17 19:25:12 20.9 19 23.8
003B5982 2019-02-17 18:53:08 20.9 20 23.8
003B5982 2019-02-17 18:21:06 20.7 20 23.8
003B5982 2019-02-17 17:49:03 20.8 19 24
003B5982 2019-02-17 17:17:00 20.9 19 24
003B5982 2019-02-17 16:44:56 20.9 19 24.5
003B5982 2019-02-17 16:12:52 20.8 19 24.5
003B5982 2019-02-17 15:40:48 20.8 20 24.5
003B5982 2019-02-17 15:08:44 20.8 20 24.4
003B5982 2019-02-17 14:36:40 20.9 20 24.4
003B5982 2019-02-17 14:04:37 20.9 20 24.3
003B5982 2019-02-17 13:32:34 21 20 24.3
003B5982 2019-02-17 13:00:30 21.1 20 24.2
003B5982 2019-02-17 12:28:27 21.1 20 24.5
003B5982 2019-02-17 11:56:24 21 20 24.5
003B5982 2019-02-17 11:24:22 21 20 24.6
003B5982 2019-02-17 10:52:17 21 20 24.6
003B5982 2019-02-17 10:20:13 20.9 20 24.9
003B5982 2019-02-17 09:48:09 20.9 21 24.9
003B5982 2019-02-17 09:16:04 20.9 21 24.8
003B5982 2019-02-17 08:43:58 20.9 21 24.9
003B5982 2019-02-17 08:11:52 20.9 21 24.9
003B5982 2019-02-17 07:39:48 20.9 21 25
003B5982 2019-02-17 07:07:44 20.9 21 25.4
003B5982 2019-02-17 06:35:40 20.9 21 25.4
003B5982 2019-02-17 06:03:37 20.9 21 25.4
003B5982 2019-02-17 05:31:33 21 22 25.3
003B5982 2019-02-17 04:59:27 21 22 25.3
003B5982 2019-02-17 04:27:23 21 22 25.2
003B5982 2019-02-17 03:55:19 21 22 25.1
003B5982 2019-02-17 03:23:15 21.2 23 24.7
003B5982 2019-02-17 03:22:00 21 23 24.8
003B5982 2019-02-17 02:49:55 21 23 24.8
003B5982 2019-02-17 02:17:50 21 23 24.8
003B5982 2019-02-17 01:45:46 21 24 24.9
003B5982 2019-02-17 01:13:42 20.9 24 24.8
003B5982 2019-02-17 00:41:39 21 24 24.9
003B5982 2019-02-17 00:09:36 20.9 24 24.9
003B5982 2019-02-16 23:37:32 20.9 24 24.7
003B5982 2019-02-16 23:05:31 21 25 24.6
003B5982 2019-02-16 22:33:29 21 24 24.6
003B5982 2019-02-16 22:01:27 21.1 25 24.6
003B5982 2019-02-16 21:29:25 21 25 24.4
003B5982 2019-02-16 20:57:21 21 25 24.4
003B5982 2019-02-16 20:25:19 21 25 24.4
003B5982 2019-02-16 19:53:14 21 25 24.4
003B5982 2019-02-16 19:21:11 21 25 24.3
003B5982 2019-02-16 18:49:08 20.9 26 24.2
003B5982 2019-02-16 18:17:04 20.8 25 23.7
003B5982 2019-02-16 17:45:01 20.9 25 24.3
003B5982 2019-02-16 17:12:57 21 25 24.3
003B5982 2019-02-16 16:40:53 21.1 25 24.4
003B5982 2019-02-16 16:08:47 21.1 25 24.4
003B5982 2019-02-16 15:36:42 21.1 25 24.4
003B5982 2019-02-16 15:04:38 21.2 25 24.5
003B5982 2019-02-16 14:32:32 21.2 25 24.4
003B5982 2019-02-16 14:00:27 21.1 25 24.4
003B5982 2019-02-16 13:28:23 21.1 25 24.4
003B5982 2019-02-16 12:56:18 21.1 25 24.4
003B5982 2019-02-16 12:24:11 21.1 25 24.4
003B5982 2019-02-16 11:52:05 21.1 25 24.4
003B5982 2019-02-16 11:20:01 21.1 25 24.4
003B5982 2019-02-16 10:47:55 21 25 24.4
003B5982 2019-02-16 10:15:51 21 25 24.3
003B5982 2019-02-16 09:43:48 21 25 24.4
003B5982 2019-02-16 09:11:47 21 25 24.8
003B5982 2019-02-16 08:39:45 21 25 24.8
003B5982 2019-02-16 08:07:43 21 26 24.8
003B5982 2019-02-16 07:35:42 21 26 24.8
003B5982 2019-02-16 07:03:40 21 26 24.7
003B5982 2019-02-16 06:31:38 21 26 24.8
003B5982 2019-02-16 05:59:36 21 26 24.7
003B5982 2019-02-16 05:27:34 21 26 25.2
003B5982 2019-02-16 04:55:33 21 26 25.1
003B5982 2019-02-16 04:23:32 21 26 25.1
003B5982 2019-02-16 03:51:29 21 26 25.1
003B5982 2019-02-16 03:19:24 20.9 26 25
003B5982 2019-02-16 02:47:20 21 26 25
003B5982 2019-02-16 02:15:17 21 25 25
003B5982 2019-02-16 01:43:16 21.1 26 25
003B5982 2019-02-16 01:11:14 21.3 25 25
003B5982 2019-02-16 01:10:00 21 26 24.9
003B5982 2019-02-16 00:37:57 21 26 25
003B5982 2019-02-16 00:05:54 21 26 25
003B5982 2019-02-15 23:33:51 21 26 25
003B5982 2019-02-15 23:01:48 20.9 26 25.4
003B5982 2019-02-15 22:29:44 21.1 26 25.3
003B5982 2019-02-15 21:57:40 21.2 26 25.4
003B5982 2019-02-15 21:25:36 21.2 26 25.4
003B5982 2019-02-15 20:53:32 21.2 26 25.3
003B5982 2019-02-15 20:21:27 21.3 26 24.9
003B5982 2019-02-15 19:49:24 21.4 26 24.9
003B5982 2019-02-15 19:17:20 21.5 25 25
003B5982 2019-02-15 18:45:16 21.7 25 25
003B5982 2019-02-15 18:13:13 21.7 25 25.4
003B5982 2019-02-15 17:41:09 21.7 25 25.3
003B5982 2019-02-15 17:09:06 21.7 25 25.3
003B5982 2019-02-15 16:37:02 21.7 24 24.9
003B5982 2019-02-15 16:04:58 21.6 24 25
003B5982 2019-02-15 15:32:56 21.6 24 24.6
003B5982 2019-02-15 15:00:53 21.7 24 24.6
003B5982 2019-02-15 14:28:48 21.7 23 24.7
003B5982 2019-02-15 13:56:43 21.7 24 24.7
003B5982 2019-02-15 13:24:39 21.7 24 24.8
003B5982 2019-02-15 12:52:35 21.6 24 24.7
003B5982 2019-02-15 12:20:32 21.6 24 24.7
003B5982 2019-02-15 11:48:29 21.6 24 24.7
003B5982 2019-02-15 11:16:25 21.5 24 24.6
003B5982 2019-02-15 10:44:22 21.5 25 24.6
003B5982 2019-02-15 10:12:19 21.5 25 24.6
003B5982 2019-02-15 09:40:16 21.5 25 24.1
003B5982 2019-02-15 09:08:13 21.5 25 24.1
003B5982 2019-02-15 08:36:09 21.4 25 24.2
003B5982 2019-02-15 08:04:05 21.3 25 24.2
003B5982 2019-02-15 07:32:02 21.2 25 24.2
003B5982 2019-02-15 06:59:59 21.2 25 24.2
003B5982 2019-02-15 06:27:56 21.2 25 24.2
003B5982 2019-02-15 05:55:52 21.2 25 24.1
003B5982 2019-02-15 05:23:47 21.2 26 24
003B5982 2019-02-15 04:51:43 21.2 26 23.3
003B5982 2019-02-15 04:19:40 21.2 26 23.3
003B5982 2019-02-15 03:47:37 21.2 26 23.2
003B5982 2019-02-15 03:15:33 21.2 26 23.1
003B5982 2019-02-15 02:43:29 21.2 26 22.9
003B5982 2019-02-15 02:11:25 21.2 26 22.9
003B5982 2019-02-15 01:39:18 21.2 26 22.9
003B5982 2019-02-15 01:07:13 21.2 26 22.6
003B5982 2019-02-15 00:35:09 21.2 26 22.5
003B5982 2019-02-15 00:03:06 21.2 26 22.3
003B5982 2019-02-14 23:31:02 21.2 26 22.1
003B5982 2019-02-14 22:58:59 21.5 25 22
003B5982 2019-02-14 22:57:44 21.3 26 21.8
003B5982 2019-02-14 22:25:40 21.2 26 21.8
003B5982 2019-02-14 21:53:35 21.2 26 21.9
003B5982 2019-02-14 21:21:31 21.2 25 22.7
003B5982 2019-02-14 20:49:28 21.2 25 22.7
003B5982 2019-02-14 20:17:23 21.4 25 22.7
003B5982 2019-02-14 19:45:19 21.4 24 22.7
003B5982 2019-02-14 19:13:15 21.6 24 22.7
003B5982 2019-02-14 18:41:10 21.7 24 22.8
003B5982 2019-02-14 18:09:04 21.8 24 22.7
003B5982 2019-02-14 17:37:00 21.8 24 22.6
003B5982 2019-02-14 17:04:55 21.8 24 22.6
003B5982 2019-02-14 16:32:50 22 24 22.7
003B5982 2019-02-14 16:00:44 22 24 22.9
003B5982 2019-02-14 15:28:39 22 24 22.7
003B5982 2019-02-14 14:56:35 21.9 24 22.8
003B5982 2019-02-14 14:24:30 21.8 24 22.9
003B5982 2019-02-14 13:52:24 21.6 23 23.1
003B5982 2019-02-14 13:20:18 21.6 24 23
003B5982 2019-02-14 12:48:13 21.4 24 23.1
003B5982 2019-02-14 12:16:07 21.4 23 23.2
003B5982 2019-02-14 11:44:02 21.3 24 23.3
003B5982 2019-02-14 11:11:57 21.3 24 23.5
003B5982 2019-02-14 10:39:53 21 24 23.5
003B5982 2019-02-14 10:07:47 20.9 24 23.7
003B5982 2019-02-14 09:35:43 20.9 24 23.6
003B5982 2019-02-14 09:03:38 20.8 24 23.6
003B5982 2019-02-14 08:31:33 20.7 24 23.4
003B5982 2019-02-14 07:59:28 20.8 25 22.8
003B5982 2019-02-14 07:27:22 20.8 25 22.8
003B5982 2019-02-14 06:55:17 20.8 25 22.9
003B5982 2019-02-14 06:23:11 20.8 25 22.8
003B5982 2019-02-14 05:51:05 20.8 26 22.8
003B5982 2019-02-14 05:18:59 20.8 25 22.7
003B5982 2019-02-14 04:46:53 20.8 25 22.7
003B5982 2019-02-14 04:14:48 20.8 25 22.7
003B5982 2019-02-14 03:42:41 20.8 25 22.6
003B5982 2019-02-14 03:10:36 20.8 25 22.4
003B5982 2019-02-14 02:38:30 20.8 25 22.3
003B5982 2019-02-14 02:06:24 20.9 25 22.4
003B5982 2019-02-14 01:34:18 20.8 25 22.3
003B5982 2019-02-14 01:02:12 20.9 25 22.1
003B5982 2019-02-14 00:30:08 20.9 25 21.9
003B5982 2019-02-13 23:58:01 20.9 25 21.8
003B5982 2019-02-13 23:25:56 20.9 25 21.6
003B5982 2019-02-13 22:53:50 20.9 25 21.5
003B5982 2019-02-13 22:21:43 21 25 21.3
003B5982 2019-02-13 21:49:36 21 25 21.1
003B5982 2019-02-13 21:17:30 21.1 25 21.1
003B5982 2019-02-13 20:45:22 21.4 25 21.1
003B5982 2019-02-13 20:44:06 21.2 25 21.5
003B5982 2019-02-13 20:12:01 21.2 25 21.4
003B5982 2019-02-13 19:39:55 21.3 25 21.6
003B5982 2019-02-13 19:07:49 21.3 25 21.5
003B5982 2019-02-13 18:35:43 21.4 26 21.6
003B5982 2019-02-13 18:03:35 21.4 27 21.3
003B5982 2019-02-13 17:31:28 21.4 26 21.3
003B5982 2019-02-13 16:59:22 21.4 27 21.3
003B5982 2019-02-13 16:27:16 21.3 26 21.3
003B5982 2019-02-13 15:55:10 21.2 26 21.5
003B5982 2019-02-13 15:23:04 21.2 25 21.6
003B5982 2019-02-13 14:50:57 21.1 25 21.8
003B5982 2019-02-13 14:18:50 21.1 24 21.8
003B5982 2019-02-13 13:46:44 21.1 24 21.8
003B5982 2019-02-13 13:14:40 21.1 24 21.8
003B5982 2019-02-13 12:42:34 21.1 25 21.8
003B5982 2019-02-13 12:10:29 21.1 25 21.8
003B5982 2019-02-13 11:38:24 21.1 25 21.9
003B5982 2019-02-13 11:06:19 21 24 22
003B5982 2019-02-13 10:34:11 20.9 24 22.1
003B5982 2019-02-13 10:02:05 20.9 23 22.1
003B5982 2019-02-13 09:30:01 20.8 22 22.2
003B5982 2019-02-13 08:57:58 20.8 22 22.3
003B5982 2019-02-13 08:25:53 20.7 21 22.2
003B5982 2019-02-13 07:53:50 20.7 20 22.2
003B5982 2019-02-13 07:21:46 20.7 19 22.1
003B5982 2019-02-13 06:49:42 20.7 19 22.2
003B5982 2019-02-13 06:17:39 20.8 19 22.2
003B5982 2019-02-13 05:45:34 20.8 19 22.1
003B5982 2019-02-13 05:13:29 20.8 19 21.8
003B5982 2019-02-13 04:41:22 20.8 19 21.8
003B5982 2019-02-13 04:09:16 20.8 19 21.7
003B5982 2019-02-13 03:37:10 20.8 19 21.6
003B5982 2019-02-13 03:05:05 20.8 19 21.5
003B5982 2019-02-13 02:32:59 20.8 19 21.2
003B5982 2019-02-13 02:00:53 20.8 18 21
003B5982 2019-02-13 01:28:49 20.8 18 20.7
003B5982 2019-02-13 00:56:45 20.9 18 20.6
003B5982 2019-02-13 00:24:42 20.9 19 20.6
003B5982 2019-02-12 23:52:38 20.9 19 20.7
003B5982 2019-02-12 23:20:33 21 19 20.8
003B5982 2019-02-12 22:48:29 21 19 20.8
003B5982 2019-02-12 22:16:26 21 19 21.1
003B5982 2019-02-12 21:44:23 21.1 20 21
003B5982 2019-02-12 21:12:20 21.2 21 20.9
003B5982 2019-02-12 20:40:17 21.3 21 20.8
003B5982 2019-02-12 20:08:15 21.4 20 20.7
003B5982 2019-02-12 19:36:12 21.5 20 20.8
003B5982 2019-02-12 19:04:08 21.5 20 20.9
003B5982 2019-02-12 18:32:04 21.8 19 20.9
003B5982 2019-02-12 18:30:50 21.6 19 20.6
003B5982 2019-02-12 17:58:47 21.6 19 20.5
003B5982 2019-02-12 17:26:43 21.8 19 20.2
003B5982 2019-02-12 16:54:38 21.9 19 20.3
003B5982 2019-02-12 16:22:33 22.1 19 20.3
003B5982 2019-02-12 15:50:27 22.2 19 20.2
003B5982 2019-02-12 15:18:23 22.2 19 20.3
003B5982 2019-02-12 14:46:19 22 19 20.2
003B5982 2019-02-12 14:14:14 21.5 19 20.2
003B5982 2019-02-12 13:42:08 21.3 20 20.5
003B5982 2019-02-12 13:10:03 21.3 20 20.8
003B5982 2019-02-12 12:37:57 21.3 20 20.9
003B5982 2019-02-12 12:05:51 21.3 20 20.9
003B5982 2019-02-12 11:01:42 21.2 21 20.7
003B5982 2019-02-12 10:29:37 21.2 22 20.5
003B5982 2019-02-12 09:57:31 21.1 22 20.5
003B5982 2019-02-12 09:25:27 21 23 20.5
003B5982 2019-02-12 08:53:21 20.9 23 20.3
003B5982 2019-02-12 08:21:16 20.8 24 20.4
003B5982 2019-02-12 07:49:12 20.8 25 20.5
003B5982 2019-02-12 07:17:07 20.8 26 20.6
003B5982 2019-02-12 06:45:03 20.8 26 20.8
003B5982 2019-02-12 06:12:58 20.8 26 20.6
003B5982 2019-02-12 05:40:53 20.8 26 20.4
003B5982 2019-02-12 05:08:48 20.9 27 20.3
003B5982 2019-02-12 04:36:43 20.9 27 20.5
003B5982 2019-02-12 04:04:38 20.9 27 20.4
003B5982 2019-02-12 03:32:32 20.9 27 20.5
003B5982 2019-02-12 03:00:27 20.9 27 20.5
003B5982 2019-02-12 02:28:23 20.9 27 20.6
003B5982 2019-02-12 01:56:18 20.9 27 20.7
003B5982 2019-02-12 01:24:13 20.9 27 20.9
003B5982 2019-02-12 00:52:09 21 27 20.8
003B5982 2019-02-12 00:20:08 21 27 20.9
003B5982 2019-02-11 23:48:00 21 27 20.7
003B5982 2019-02-11 23:15:55 21.1 27 20.4
003B5982 2019-02-11 22:43:51 21.1 27 20.5
003B5982 2019-02-11 22:11:49 21.2 27 20.6
003B5982 2019-02-11 21:39:46 21.3 27 21
003B5982 2019-02-11 21:07:43 21.3 27 21.4
003B5982 2019-02-11 20:35:36 21.4 27 21.3
003B5982 2019-02-11 20:03:31 21.5 27 21.1
003B5982 2019-02-11 19:31:25 21.6 27 20.8
003B5982 2019-02-11 18:59:19 21.7 27 20.5
003B5982 2019-02-11 18:27:13 21.9 27 20.4
003B5982 2019-02-11 17:55:07 22.1 28 19.5
003B5982 2019-02-11 17:22:59 22.2 28 12.7
003B5982 2019-02-11 16:50:51 22.2 28 15.2
003B5982 2019-02-11 16:18:43 22.2 35 0